Location: Putah Creek Observatory
(38.7021°N, 122.3865°W)
Time: 20:37:15
(UTC-07:00)

Cosmos 1536 Rocket - Pass Details

Date: 27 May 2018
Orbit: 605 x 633 km, 82.5° (Epoch: 17 August)

Event Time Altitude Azimuth Distance (km) Brightness Sun altitude
Exits shadow 22:15:29 16° 196° (SSW) 1,640 5.4 -17.7°
Maximum altitude 22:18:59 69° 278° (W) 673 3.8 -18.1°
Drops below altitude 10° 22:23:27 10° 2° (N) 2,016 6.8 -18.7°
Sets 22:25:43 0° 5° (N) 2,931 7.7 -19.0°
